Simultaneous Nadir Overpasses (SNOs) Predictions

Prediction of SNOs between FY3D and TERRA Satellite Orbit:

Table of predicted SNOs for the next 14.0 days since TLE Epoch: 9/11/2021
Index Date (FY3D) Time (FY3D) Lat,Lon (FY3D) SZA (FY3D ) Date (TERRA) Time (TERRA) Lat,Lon (TERRA) SZA (TERRA ) Distance(km) Time Diff (sec)
1 09/11/2021 09:08:15 -70.24,-137.31 114.28 09/11/2021 09:09:14 -70.26,-137.27 114.26 2.68 59
2 09/11/2021 09:58:59 70.13, 30.15 65.64 09/11/2021 09:58:41 70.15, 30.23 65.66 3.57 18
3 09/11/2021 10:49:30 -69.50,-161.57 114.98 09/11/2021 10:48:20 -69.54,-162.98 114.95 54.98 70
4 09/14/2021 01:24:33 -70.24, -21.37 113.25 09/14/2021 01:25:41 -70.24, -21.42 113.25 1.87 68
5 09/14/2021 02:15:16 70.13, 146.10 66.66 09/14/2021 02:15:07 70.14, 146.08 66.66 0.84 9
6 09/14/2021 03:05:52 -69.77, -46.02 113.69 09/14/2021 03:04:40 -69.86, -46.68 113.61 27.19 72
7 09/16/2021 17:40:53 -70.39, 94.33 112.06 09/16/2021 17:42:05 -70.33, 94.59 112.13 12.22 72
8 09/16/2021 18:31:35 70.19, -98.04 67.75 09/16/2021 18:31:33 70.17, -98.00 67.73 2.87 2
9 09/16/2021 19:22:15 -70.03, 69.53 112.40 09/16/2021 19:21:03 -70.06, 69.48 112.38 3.28 72
10 09/19/2021 09:57:16 -70.66,-150.15 110.76 09/19/2021 09:58:27 -70.58,-149.17 110.84 37.44 71
11 09/19/2021 10:47:53 70.19, 17.90 68.79 09/19/2021 10:47:59 70.19, 17.91 68.79 0.32 6
12 09/19/2021 11:38:34 -70.09,-174.61 111.30 09/19/2021 11:37:29 -70.08,-174.61 111.31 0.45 65
13 09/22/2021 02:13:40 -70.97, -34.73 109.41 09/22/2021 02:14:48 -70.87, -32.85 109.49 69.56 68
14 09/22/2021 03:04:11 70.19, 133.84 69.84 09/22/2021 03:04:25 70.21, 133.82 69.85 1.82 14
15 09/22/2021 03:54:52 -70.09, -58.67 110.26 09/22/2021 03:53:55 -70.11, -58.70 110.25 1.88 57
16 09/24/2021 18:30:02 -71.24, 80.76 108.10 09/24/2021 18:31:08 -71.16, 83.48 108.15 97.92 66
17 09/24/2021 19:20:28 70.20,-110.22 70.89 09/24/2021 19:20:50 70.22,-110.29 70.91 3.46 22
18 09/24/2021 20:11:10 -70.15, 57.18 109.15 09/24/2021 20:10:20 -70.12, 57.20 109.19 3.11 50



Historial Predications of SNOs between FY3D and TERRA
